EW0401 Weather Reports


time (UTC)temp
F
wind
direction
speed
knots
gust
knots
rain 1hr
in
rain 24hr
in
rain mn
in
humidity
%
barometer
mb
20260831191602 90 204 0.9 6.1 0.00 0.00 0.00 73 1016.1
20260831190110 92 261 0.9 11.3 0.00 0.00 0.00 70 1016.1
20260831184606 92 0 0.9 3.5 0.00 0.00 0.00 70 1016.2
20260831183102 93 0 0.0 2.6 0.00 0.00 0.00 67 1016.3
20260831181602 91 0 0.0 0.9 0.00 0.00 0.00 71 1016.6
20260831180110 90 0 0.0 2.6 0.00 0.00 0.00 70 1016.7
20260831174605 91 0 0.0 1.7 0.00 0.00 0.00 72 1017.0
20260831173104 91 0 0.0 3.5 0.00 0.00 0.00 72 1017.1
20260831171604 91 0 0.0 1.7 0.00 0.00 0.00 73 1017.3
20260831170105 92 0 0.0 2.6 0.00 0.00 0.00 69 1017.4
20260831164630 91 0 0.0 2.6 0.00 0.00 0.00 71 1017.3
20260831163105 90 0 0.0 2.6 0.00 0.00 0.00 72 1017.4
20260831161614 91 58 0.0 2.6 0.00 0.00 0.00 74 1017.4
20260831160107 90 0 0.0 2.6 0.00 0.00 0.00 75 1017.6
20260831154635 90 47 0.0 1.7 0.00 0.00 0.00 77 1017.4
20260831153105 88 0 0.0 1.7 0.00 0.00 0.00 79 1017.4
20260831151614 86 0 0.0 3.5 0.00 0.00 0.00 83 1017.5
20260831150104 84 0 0.0 3.5 0.00 0.00 0.00 84 1017.7
20260831144615 83 59 0.0 1.7 0.00 0.00 0.00 85 1017.6
20260831143114 82 0 0.0 0.9 0.00 0.00 0.00 86 1017.5
20260831141619 81 0 0.0 0.0 0.00 0.00 0.00 87 1017.4
20260831140101 80 0 0.0 1.7 0.00 0.00 0.00 88 1017.3
20260831134604 80 0 0.0 1.7 0.00 0.00 0.00 88 1017.2
20260831133104 80 0 0.0 0.9 0.00 0.00 0.00 88 1017.2
20260831132532 80 63 0.0 1.7 0.00 0.00 0.00 89 1016.8
20260831131605 79 0 0.0 0.9 0.00 0.00 0.00 88 1017.0
20260831124601 78 225 0.0 1.7 0.00 0.00 0.00 89 1016.6
20260831123103 78 225 0.0 1.7 0.00 0.00 0.00 90 1016.2
20260831121605 78 0 0.0 0.0 0.00 0.00 0.00 90 1016.0
20260831120112 77 0 0.0 0.0 0.00 0.00 0.00 90 1015.9
20260831114604 77 0 0.0 0.0 0.00 0.00 0.00 90 1015.6
20260831113108 77 0 0.0 0.0 0.00 0.00 0.00 90 1015.8
20260831111609 77 0 0.0 0.0 0.00 0.00 0.00 90 1015.7
20260831104607 77 0 0.0 0.0 0.00 0.00 0.00 89 1015.5
20260831103103 77 0 0.0 0.0 0.00 0.00 0.00 89 1015.7
20260831101559 77 0 0.0 0.0 0.00 0.00 0.00 89 1015.7
20260831100106 77 0 0.0 0.0 0.00 0.00 0.00 89 1015.7
20260831094607 78 0 0.0 0.0 0.00 0.00 0.00 89 1015.6
20260831093107 78 0 0.0 0.0 0.00 0.00 0.00 89 1015.5
20260831091607 78 0 0.0 0.0 0.00 0.00 0.00 88 1015.5
20260831084611 78 0 0.0 0.0 0.00 0.00 0.00 88 1015.4
20260831083113 79 0 0.0 0.0 0.00 0.00 0.00 88 1015.5
20260831081608 79 0 0.0 0.0 0.00 0.00 0.00 87 1015.6
20260831080108 79 0 0.0 0.0 0.00 0.00 0.00 87 1015.9
20260831074615 80 0 0.0 0.0 0.00 0.00 0.00 87 1015.9
20260831073110 80 0 0.0 0.0 0.00 0.00 0.00 86 1015.7
20260831071604 80 0 0.0 0.0 0.00 0.00 0.00 86 1015.9
20260831070105 81 0 0.0 0.0 0.00 0.00 0.00 86 1015.9
20260831064559 81 0 0.0 0.0 0.00 0.00 0.00 86 1015.9
20260831063106 81 0 0.0 0.0 0.00 0.00 0.00 85 1016.0
20260831061602 82 0 0.0 0.0 0.00 0.00 0.00 85 1016.0
20260831060108 81 0 0.0 0.0 0.00 0.00 0.00 85 1016.0
20260831054604 82 0 0.0 0.0 0.00 0.00 0.00 85 1016.1
20260831053104 82 0 0.0 0.0 0.00 0.00 0.00 85 1016.2
20260831051611 82 0 0.0 0.0 0.00 0.00 0.00 84 1015.9
20260831050108 83 0 0.0 0.0 0.00 0.00 0.00 84 1015.8
20260831044616 83 0 0.0 0.0 0.00 0.00 0.00 84 1015.9
20260831043105 83 0 0.0 0.0 0.00 0.00 0.00 82 1015.8
20260831041605 84 0 0.0 0.9 0.00 0.00 0.00 82 1015.8
20260831040107 84 0 0.0 1.7 0.00 0.00 0.00 82 1015.7
20260831034607 84 0 0.0 1.7 0.00 0.00 0.00 82 1015.7
20260831033119 85 0 0.0 1.7 0.00 0.00 0.00 81 1015.6
20260831031600 85 0 0.0 2.6 0.00 0.00 0.00 80 1015.4
20260831030104 85 0 0.0 1.7 0.00 0.00 0.00 80 1015.4
20260831024621 85 0 0.0 3.5 0.00 0.00 0.00 80 1015.3
20260831023102 85 0 0.0 0.9 0.00 0.00 0.00 80 1014.9
20260831021601 85 0 0.0 0.0 0.00 0.00 0.00 79 1014.7
20260831020105 85 0 0.0 0.9 0.00 0.00 0.00 78 1014.6
20260831014603 86 0 0.0 1.7 0.00 0.00 0.00 78 1014.6
20260831013103 86 208 0.0 1.7 0.00 0.00 0.00 77 1014.5
20260831011605 86 0 0.0 0.0 0.00 0.00 0.00 76 1014.4
20260831010110 87 208 0.0 1.7 0.00 0.00 0.00 75 1014.3
20260831004606 88 0 0.0 4.3 0.00 0.00 0.00 73 1014.3
20260831003105 89 0 0.0 1.7 0.00 0.00 0.00 72 1014.3
20260831001611 90 0 0.0 4.3 0.00 0.00 0.00 70 1014.4
20260831000108 92 0 0.0 1.7 0.00 0.00 0.00 66 1014.6
20260830234605 92 0 0.0 1.7 0.00 0.00 0.00 63 1014.5
20260830233109 93 0 0.0 4.3 0.00 0.00 0.00 61 1014.5
20260830231605 95 0 0.0 1.7 0.00 0.00 0.00 56 1014.6
20260830230105 96 302 0.0 2.6 0.00 0.00 0.00 56 1014.4
20260830224603 96 0 0.0 3.5 0.00 0.00 0.00 56 1014.4
20260830223109 98 190 0.0 2.6 0.00 0.00 0.00 54 1014.3
20260830221603 99 0 0.0 2.6 0.00 0.00 0.00 54 1014.3
20260830220107 99 0 0.0 4.3 0.00 0.00 0.00 50 1014.2
20260830214620 100 0 0.0 3.5 0.00 0.00 0.00 49 1014.2
20260830213106 100 0 0.0 1.7 0.00 0.00 0.00 45 1014.5
20260830211604 100 0 0.0 2.6 0.00 0.00 0.00 48 1014.4
20260830210104 99 224 0.0 3.5 0.00 0.00 0.00 47 1014.8
20260830204604 100 0 0.0 3.5 0.00 0.00 0.00 48 1015.1
20260830203106 99 200 0.0 4.3 0.00 0.00 0.00 49 1015.3
20260830201604 99 0 0.0 2.6 0.00 0.00 0.00 48 1015.4
20260830200107 99 0 0.0 2.6 0.00 0.00 0.00 49 1015.4
20260830194608 98 0 0.0 4.3 0.00 0.00 0.00 45 1015.6
20260830193131 98 0 0.0 2.6 0.00 0.00 0.00 47 1015.9